EW6338 Weather Reports


Display with metric or nautical units.
time (UTC)temp
F
wind
direction
speed
MPH
gust
MPH
rain 1hr
in
rain 24hr
in
rain mn
in
humidity
%
barometer
mb
20180719054655 57 234 0.0 0.0 0.00 0.01 0.00 81 1014.9
20180719053150 58 234 0.0 0.0 0.00 0.01 0.00 80 1014.9
20180719051648 58 234 0.0 0.0 0.00 0.01 0.00 78 1014.8
20180719050147 59 234 0.0 0.0 0.00 0.01 0.00 76 1014.6
20180719044641 60 234 0.0 0.0 0.00 0.01 0.00 75 1014.3
20180719043142 60 234 0.0 0.0 0.00 0.01 0.00 75 1014.2
20180719041640 60 234 0.0 0.0 0.00 0.01 0.00 75 1014.2
20180719040135 60 231 0.0 0.0 0.00 0.01 0.00 73 1014.0
20180719034633 61 231 0.0 0.0 0.00 0.01 0.01 73 1013.9
20180719033136 61 231 0.0 0.0 0.00 0.01 0.01 71 1013.8
20180719031629 62 231 0.0 0.0 0.00 0.01 0.01 72 1013.7
20180719030130 62 231 0.0 0.0 0.00 0.01 0.01 71 1013.5
20180719024625 63 231 0.0 0.0 0.00 0.01 0.01 70 1013.3
20180719023123 63 231 0.0 0.0 0.00 0.01 0.01 67 1013.3
20180719021622 63 231 0.0 0.0 0.00 0.01 0.01 67 1013.3
20180719020122 63 231 0.0 0.0 0.00 0.01 0.01 68 1013.1
20180719014617 63 231 0.0 0.0 0.00 0.01 0.01 65 1013.1
20180719013118 64 231 0.0 0.0 0.00 0.01 0.01 64 1013.0
20180719011612 66 231 0.0 0.0 0.00 0.01 0.01 64 1012.8
20180719010109 66 231 0.0 0.0 0.00 0.01 0.01 59 1012.5
20180719004608 67 231 0.0 0.0 0.00 0.01 0.01 61 1012.3
20180719003107 68 232 0.0 0.0 0.00 0.01 0.01 58 1012.1
20180719001607 69 232 0.0 0.0 0.00 0.01 0.01 56 1011.9
20180719000102 70 232 0.0 0.0 0.00 0.01 0.01 55 1011.7
20180718234600 71 232 0.0 0.0 0.00 0.04 0.01 54 1011.4
20180718233057 71 232 0.0 0.0 0.00 0.04 0.01 52 1011.2
20180718231558 72 232 0.0 0.0 0.00 0.04 0.01 51 1011.1
20180718230056 72 232 0.0 0.0 0.00 0.04 0.01 51 1011.1
20180718224555 73 232 0.0 2.0 0.00 0.18 0.01 50 1010.9
20180718223053 73 286 0.0 0.0 0.00 0.18 0.01 48 1010.8
20180718221554 74 293 0.0 1.0 0.00 0.18 0.01 48 1010.8
20180718220052 74 359 0.0 2.0 0.00 0.18 0.01 50 1010.7
20180718214550 75 319 0.0 6.0 0.00 0.30 0.01 47 1010.7
20180718213048 75 29 0.0 3.0 0.00 0.30 0.01 47 1010.5
20180718211548 76 75 0.0 4.0 0.00 0.30 0.01 44 1010.4
20180718210050 77 48 0.0 2.0 0.00 0.30 0.01 51 1010.4
20180718204545 77 10 0.0 0.0 0.00 0.47 0.01 49 1010.4
20180718203046 78 56 0.0 2.0 0.00 0.47 0.01 47 1010.4
20180718201546 78 252 0.0 1.0 0.00 0.47 0.01 52 1010.4
20180718200043 78 228 0.0 2.0 0.00 0.47 0.01 48 1010.4
20180718194544 78 295 0.0 7.0 0.00 0.59 0.01 46 1010.4
20180718193042 78 7 0.0 3.0 0.00 0.59 0.01 49 1010.3
20180718191543 79 324 0.0 2.0 0.00 0.59 0.01 47 1010.3
20180718190043 79 56 0.0 1.0 0.00 0.59 0.01 47 1010.3
20180718184540 79 295 0.0 3.0 0.00 0.63 0.01 45 1010.3
20180718183042 78 308 0.0 3.0 0.00 0.63 0.01 54 1010.2
20180718181542 79 323 0.0 4.0 0.00 0.63 0.01 49 1010.1
20180718180041 79 264 1.0 3.0 0.00 0.63 0.01 49 1010.1
20180718174540 79 309 0.0 2.0 0.00 1.19 0.01 55 1010.0
20180718173037 79 31 0.0 2.0 0.00 1.19 0.01 51 1009.9
20180718171535 79 49 0.0 5.0 0.00 1.19 0.01 56 1010.0
20180718170035 78 160 0.0 3.0 0.00 1.19 0.01 56 1010.1
20180718164532 78 309 0.0 3.0 0.00 1.19 0.01 49 1010.1
20180718163029 77 302 0.0 3.0 0.00 1.19 0.01 57 1010.3
20180718161532 77 278 0.0 4.0 0.00 1.19 0.01 53 1010.3
20180718160026 76 264 0.0 3.0 0.00 1.19 0.01 62 1010.3
20180718154526 76 247 0.0 1.0 0.00 1.19 0.01 61 1010.2
20180718153023 75 259 0.0 3.0 0.00 1.19 0.01 61 1010.3
20180718151520 75 229 0.0 1.0 0.00 1.19 0.01 62 1010.4
20180718150018 75 65 0.0 2.0 0.00 1.19 0.01 71 1010.4
20180718144516 75 347 0.0 4.0 0.00 1.19 0.01 70 1010.4
20180718143014 73 332 0.0 2.0 0.00 1.19 0.01 70 1010.3
20180718141512 73 260 0.0 3.0 0.00 1.19 0.01 74 1010.3
20180718140010 73 336 0.0 6.0 0.00 1.19 0.01 73 1010.3
20180718134509 73 311 0.0 1.0 0.00 1.19 0.01 78 1010.3
20180718133006 73 222 0.0 1.0 0.00 1.19 0.01 84 1010.3
20180718131503 71 231 0.0 1.0 0.00 1.19 0.01 85 1010.3
20180718130002 71 63 0.0 3.0 0.00 1.19 0.01 87 1010.4
20180718124458 70 238 0.0 1.0 0.00 1.19 0.01 92 1010.3
20180718122954 69 326 0.0 2.0 0.00 1.19 0.01 96 1010.2
20180718121453 68 131 0.0 1.0 0.00 1.19 0.01 98 1010.1
20180718115952 66 356 0.0 2.0 0.00 1.19 0.01 98 1010.1
20180718114451 67 261 0.0 1.0 0.00 1.19 0.01 99 1010.0
20180718112946 67 188 0.0 1.0 0.00 1.19 0.01 99 1009.8
20180718111547 67 238 0.0 0.0 0.00 1.19 0.01 100 1009.7
20180718105943 66 164 0.0 0.0 0.00 1.19 0.01 100 1009.5
20180718104444 66 164 0.0 0.0 0.00 1.19 0.01 99 1009.4
20180718102941 66 105 0.0 0.0 0.00 1.19 0.01 99 1009.3
20180718101438 66 105 0.0 0.0 0.00 1.19 0.01 99 1009.0
20180718095935 67 264 0.0 0.0 0.00 1.19 0.01 99 1008.9
20180718094433 67 263 0.0 0.0 0.00 1.19 0.01 100 1008.8
20180718092935 67 264 0.0 0.0 0.00 1.19 0.01 100 1008.6
20180718091432 67 264 0.0 0.0 0.00 1.19 0.01 100 1008.3
20180718085930 67 263 0.0 0.0 0.00 1.19 0.01 100 1008.3
20180718084426 68 264 0.0 0.0 0.00 1.19 0.01 100 1007.8
20180718082925 67 264 0.0 0.0 0.00 1.19 0.01 100 1007.5
20180718081424 67 264 0.0 0.0 0.00 1.19 0.01 100 1007.4
20180718075925 67 264 0.0 0.0 0.00 1.19 0.01 99 1007.1
20180718074421 67 264 0.0 0.0 0.00 1.19 0.01 99 1007.0
20180718073023 67 264 0.0 0.0 0.00 1.19 0.01 99 1006.9
20180718071424 67 264 0.0 0.0 0.00 1.19 0.01 99 1006.9
20180718065921 68 263 0.0 0.0 0.00 1.19 0.01 99 1007.4
20180718064417 68 264 0.0 0.0 0.01 1.19 0.01 99 1007.2
20180718062916 67 263 0.0 0.0 0.01 1.19 0.01 99 1006.8
20180718061415 68 264 0.0 0.0 0.01 1.19 0.01 99 1006.6
20180718055914 68 264 0.0 0.0 0.01 1.19 0.01 99 1006.7